Simultaneous Nadir Overpasses (SNOs) Predictions

Prediction of SNOs between NOAA-19 and TERRA Satellite Orbit:

Table of predicted SNOs for the next 14.0 days since TLE Epoch: 2/11/2023
Index Date (NOAA-19) Time (NOAA-19) Lat,Lon (NOAA-19) SZA (NOAA-19 ) Date (TERRA) Time (TERRA) Lat,Lon (TERRA) SZA (TERRA ) Distance(km) Time Diff (sec)
1 02/12/2023 01:16:33 80.93,-164.23 96.00 02/12/2023 01:17:44 80.93,-164.15 96.04 1.50 71
2 02/12/2023 02:07:28 -80.93, 3.64 83.97 02/12/2023 02:07:07 -80.93, 3.46 83.98 3.13 21
3 02/14/2023 05:58:13 80.93, 125.92 95.32 02/14/2023 05:57:52 80.94, 125.86 95.31 1.67 21
4 02/16/2023 09:48:52 -80.93,-112.25 85.47 02/16/2023 09:48:38 -80.92,-112.08 85.46 2.96 14
5 02/18/2023 13:39:36 80.93, 10.51 93.83 02/18/2023 13:39:21 80.94, 10.44 93.82 1.80 15
6 02/20/2023 17:30:13 -80.93, 132.69 86.96 02/20/2023 17:30:05 -80.94, 132.78 86.94 2.28 8
7 02/22/2023 21:20:59 80.93,-105.27 92.25 02/22/2023 21:20:48 80.91,-105.26 92.23 1.49 11



Historial Predications of SNOs between NOAA-19 and TERRA
